Location: Gugi
(45.4667°N, 11.1000°E)
Time: 23:25:16
(UTC+00:00)

Cosmos 2142 Rocket - Pass Details

Date: 17 November 2019
Orbit: 953 x 1004 km, 83.0° (Epoch: 09 December)

Event Time Altitude Azimuth Distance (km) Brightness Sun altitude
Rises 18:12:07 0° 353° (N) 3,743 7.6 -25.9°
Reaches altitude 10° 18:14:41 10° 356° (N) 2,788 6.9 -26.3°
Enters shadow 18:21:00 70° 73° (ENE) 1,062 4.4 -27.4°
